Weather History for KPSP - March, 2013

Change the Weather History Date:

Friday, March 1, 2013

  Actual Average Record
Temperature  
Mean Temperature 69 °F 63 °F  
Max Temperature 84 °F 75 °F 90 °F (1967)
Min Temperature 53 °F 50 °F 32 °F (1945)
Degree Days  
Heating Degree Days 0 3  
Month to date heating degree days 0 3  
Since 1 July heating degree days 738 781  
Cooling Degree Days 4 1  
Month to date cooling degree days 4 1  
Year to date cooling degree days 16 28  
Growing Degree Days 19 (Base 50)    
Moisture  
Dew Point 19 °F    
Average Humidity 16    
Maximum Humidity 24    
Minimum Humidity 7    
Precipitation  
Precipitation 0.00 in 0.05 in 1.93 in (1991)
Month to date precipitation 0.00 0.05  
Year to date precipitation 0.93 2.08  
Since 1 July precipitation 2.15  
Snow  
Snow 0.00 in - - ()
Month to date snowfall 0.0  
Year to date snowfall 0.0  
Since 1 July snowfall 0.0  
Snow Depth 0.00 in    
Sea Level Pressure  
Sea Level Pressure 30.27 in    
Wind  
Wind Speed 7 mph (WNW)    
Max Wind Speed 14 mph    
Max Gust Speed 15 mph    
Visibility 10 miles    
Events      
T = Trace of Precipitation, MM = Missing Value Source: NWS Daily Summary

Daily Weather History Graph

Daily Weather History Graph

Search for Another Location

Airport or City:

Trip Planner

Search our weather history database for the weather conditions in past years. The results will help you decide how hot, cold, wet, or windy it might be!

Date:

Astronomy

Mar. 01, 2013 Rise Set
Actual Time 6:14 AM PST 5:42 PM PST
Civil Twilight 5:49 AM PST 6:07 PM PST
Nautical Twilight 5:20 AM PST 6:36 PM PST
Astronomical Twilight 4:51 AM PST 7:05 PM PST
Moon 10:05 PM PST (3/1) 8:17 AM PST (3/1)
Length of Visible Light 12h 18m
Length of Day
11h 28m
Waning Gibbous, 82% of the Moon is Illuminated
Mar 1
Waning Gibbous
Mar 4
Last Quarter
Mar 11
New
Mar 19
First Quarter
Mar 27
Full

Hourly Weather History & Observations

Time (PST) Temp. Dew Point Humidity Pressure Visibility Wind Dir Wind Speed Gust Speed Precip Events Conditions
12:53 AM 59.0 °F 16.0 °F 19% 30.32 in 10.0 mi NW 6.9 mph - N/A   Clear
1:53 AM 55.9 °F 18.0 °F 23% 30.32 in 10.0 mi NNW 10.4 mph - N/A   Clear
2:53 AM 55.0 °F 17.1 °F 23% 30.31 in 10.0 mi NNW 10.4 mph - N/A   Clear
3:53 AM 54.0 °F 17.1 °F 23% 30.31 in 10.0 mi NNW 8.1 mph - N/A   Clear
4:53 AM 57.9 °F 15.1 °F 19% 30.31 in 10.0 mi NW 6.9 mph - N/A   Clear
5:53 AM 54.0 °F 16.0 °F 22% 30.33 in 10.0 mi NW 9.2 mph - N/A   Clear
6:53 AM 55.0 °F 17.1 °F 23% 30.34 in 10.0 mi NW 10.4 mph - N/A   Clear
7:53 AM 64.0 °F 18.0 °F 17% 30.35 in 10.0 mi NNW 8.1 mph - N/A   Clear
8:53 AM 72.0 °F 23.0 °F 16% 30.34 in 10.0 mi WSW 4.6 mph - N/A   Clear
9:53 AM 78.1 °F 15.1 °F 9% 30.32 in 10.0 mi Calm Calm - N/A   Clear
10:53 AM 80.1 °F 12.9 °F 8% 30.30 in 10.0 mi SW 4.6 mph - N/A   Clear
11:53 AM 82.0 °F 15.1 °F 8% 30.27 in 10.0 mi Variable 4.6 mph - N/A   Clear
1:53 PM 82.9 °F 15.1 °F 8% 30.22 in 10.0 mi SSE 4.6 mph - N/A   Clear
3:53 PM 84.0 °F 16.0 °F 8% 30.19 in 10.0 mi South 3.5 mph - N/A   Clear
4:53 PM 82.0 °F 17.1 °F 9% 30.18 in 10.0 mi South 3.5 mph - N/A   Clear
5:53 PM 77.0 °F 21.9 °F 13% 30.18 in 10.0 mi SW 4.6 mph - N/A   Clear
6:53 PM 75.0 °F 21.9 °F 14% 30.20 in 10.0 mi WSW 5.8 mph - N/A   Clear
7:53 PM 72.0 °F 23.0 °F 16% 30.21 in 10.0 mi NNW 5.8 mph - N/A   Clear
8:53 PM 69.1 °F 25.0 °F 19% 30.22 in 10.0 mi NW 4.6 mph - N/A   Clear
9:53 PM 68.0 °F 25.0 °F 20% 30.22 in 10.0 mi West 4.6 mph - N/A   Clear
10:53 PM 63.0 °F 25.0 °F 24% 30.22 in 10.0 mi NNW 8.1 mph - N/A   Clear
11:53 PM 64.9 °F 24.1 °F 21% 30.23 in 10.0 mi NW 4.6 mph - N/A   Clear